Flag for Russia Weather past 2 weeks in Orenburg, Russia

Now
48 °F

Partly sunny.


Feels Like: 47 °F
Forecast: 36 / 52 °F
Wind: 3 mph from South

Location: Orenburg / Tsentralny

Current Time: Sep 16, 2014 at 9:16:35 AM

Latest Report: Sep 16, 2014 at 8:30 AM


Visibility: N/A

Pressure: 29.89 "Hg

Humidity: 87%

Dew point: 45 °F

Location of OrenburgLocation

Historic Weather in Orenburg — Graph

°F

Orenburg temperature yesterday

Maximum temperature yesterday: 75 °F (at 4:30 PM)
Minimum temperature yesterday: 48 °F (at 4:30 AM)
Average temperature yesterday: 61 °F

Past Weeks' High & Low Weather Summary

 TemperatureHumidityPressure
High81 °F (Sep 4, 2:00 PM)93% (Sep 1, 8:00 AM)30.36 "Hg (Sep 1, 8:00 AM)
Low37 °F (Sep 14, 8:00 AM)14% (Sep 4, 6:00 PM)29.89 "Hg (Sep 4, 6:30 PM)
Average60 °F44%30.12 "Hg
* Reported Sep 1 8:00 AM — Sep 16 8:00 AM, Orenburg, Weather by CustomWeather, © 2014

Note: Actual official high and low records may vary slightly from our data, if they occured in-between our weather recording intervals... More about our weather records

Advertising

Orenburg weather history for previous 24 hours

 ConditionsComfort  
Time TempWeatherWind HumidityBarometerVisibility
8:00 AM
Sep 16
50 °FPartly sunny.1 mph82%29.89 "HgN/A
7:00 AM54 °FPartly cloudy.1 mph72%29.92 "HgN/A
6:30 AM54 °FPartly cloudy.1 mph72%29.92 "HgN/A
6:00 AM54 °FPartly cloudy.3 mph72%29.92 "HgN/A
5:30 AM55 °FPartly cloudy.1 mph67%29.92 "HgN/A
5:00 AM54 °FPartly cloudy.3 mph72%29.92 "HgN/A
4:30 AM55 °FPartly cloudy.3 mph67%29.92 "HgN/A
4:00 AM54 °FPartly cloudy.3 mph72%29.92 "HgN/A
3:30 AM55 °FPartly cloudy.3 mph63%29.92 "HgN/A
3:00 AM52 °FPartly cloudy.1 mph67%29.95 "HgN/A
2:30 AM59 °FPartly cloudy.1 mph59%29.95 "HgN/A
2:00 AM52 °FPartly cloudy.1 mph58%29.95 "HgN/A
1:30 AM52 °FPartly cloudy.3 mph54%29.95 "HgN/A
1:00 AM52 °FPartly cloudy.No wind54%29.95 "HgN/A
12:30 AM54 °FPartly cloudy.1 mph51%29.95 "HgN/A
12:00 AM54 °FPartly cloudy.3 mph51%29.98 "HgN/A
11:30 PM
Sep 15
57 °FPartly cloudy.1 mph44%29.98 "HgN/A
11:00 PM61 °FPartly cloudy.No wind45%29.98 "HgN/A
10:30 PM63 °FPartly cloudy.1 mph49%29.98 "HgN/A
10:00 PM64 °FPartly cloudy.3 mph46%29.98 "HgN/A
9:30 PM63 °FPartly cloudy.6 mph49%29.98 "HgN/A
9:00 PM64 °FPartly cloudy.3 mph46%29.98 "HgN/A
8:30 PM68 °FBroken clouds.3 mph40%29.98 "HgN/A
8:00 PM70 °FBroken clouds.3 mph35%29.98 "HgN/A
7:30 PM72 °FBroken clouds.3 mph31%29.98 "HgN/A
7:00 PM73 °FBroken clouds.6 mph29%30.01 "HgN/A
6:30 PM73 °FBroken clouds.3 mph27%30.01 "HgN/A
6:00 PM75 °FBroken clouds.3 mph27%30.01 "HgN/A
5:30 PM75 °FBroken clouds.3 mph27%30.01 "HgN/A
5:00 PM75 °FBroken clouds.3 mph27%30.04 "HgN/A
4:30 PM75 °FBroken clouds.3 mph27%30.04 "HgN/A
4:00 PM73 °FBroken clouds.1 mph31%30.04 "HgN/A
3:30 PM73 °FScattered clouds.3 mph31%30.07 "HgN/A
3:00 PM72 °FScattered clouds.6 mph33%30.07 "HgN/A
2:30 PM72 °FScattered clouds.3 mph36%30.07 "HgN/A
2:00 PM70 °FPassing clouds.3 mph38%30.07 "HgN/A
1:30 PM68 °FPassing clouds.3 mph43%30.07 "HgN/A
1:00 PM66 °FPassing clouds.3 mph46%30.09 "HgN/A
12:30 PM64 °FPassing clouds.6 mph49%30.09 "HgN/A
12:00 PM63 °FPassing clouds.6 mph52%30.09 "HgN/A
11:30 AM61 °FPassing clouds.8 mph55%30.09 "HgN/A
11:00 AM59 °FPassing clouds.6 mph55%30.09 "HgN/A
10:30 AM59 °FPassing clouds.8 mph59%30.09 "HgN/A
10:00 AM57 °FScattered clouds.6 mph59%30.09 "HgN/A
9:30 AM55 °FScattered clouds.3 mph59%30.09 "HgN/A
9:00 AM54 °FScattered clouds.3 mph63%30.09 "HgN/A
Weather by CustomWeather, © 2014

See weather overviewHow to use our weather pages